| time (UTC) | temp F | wind direction | speed MPH | gust MPH | rain 1hr in | rain 24hr in | rain mn in | humidity % | barometer mb |
| 20260504200043 | 72 | 226 | 0.0 | 9.0 | 0.00 | 0.00 | 0.00 | 46 | 1014.3 |
| 20260504194541 | 73 | 147 | 0.0 | 7.0 | 0.00 | 0.00 | 0.00 | 47 | 1014.7 |
| 20260504193037 | 72 | 158 | 0.0 | 7.0 | 0.00 | 0.00 | 0.00 | 46 | 1015.0 |
| 20260504191533 | 72 | 221 | 0.0 | 4.0 | 0.00 | 0.00 | 0.00 | 48 | 1015.3 |
| 20260504190030 | 71 | 171 | 0.0 | 7.0 | 0.00 | 0.00 | 0.00 | 48 | 1015.6 |
| 20260504184528 | 71 | 98 | 0.0 | 8.0 | 0.00 | 0.00 | 0.00 | 48 | 1015.8 |
| 20260504183026 | 70 | 85 | 0.0 | 7.0 | 0.00 | 0.00 | 0.00 | 47 | 1016.0 |
| 20260504183024 | 70 | 86 | 0.0 | 7.0 | 0.00 | 0.00 | 0.00 | 47 | 1016.0 |
| 20260504181519 | 69 | 167 | 1.0 | 12.0 | 0.00 | 0.00 | 0.00 | 48 | 1016.2 |
| 20260504180016 | 69 | 181 | 0.0 | 4.0 | 0.00 | 0.00 | 0.00 | 47 | 1016.4 |
| 20260504174513 | 68 | 212 | 0.0 | 12.0 | 0.00 | 0.00 | 0.00 | 48 | 1016.7 |
| 20260504173011 | 67 | 105 | 0.0 | 6.0 | 0.00 | 0.00 | 0.00 | 47 | 1016.6 |
| 20260504171507 | 67 | 175 | 0.0 | 0.0 | 0.00 | 0.00 | 0.00 | 48 | 1017.1 |
| 20260504081558 | 41 | 113 | 0.0 | 0.0 | 0.00 | 0.00 | 0.00 | 86 | 1018.5 |
| 20260504050002 | 44 | 95 | 0.0 | 0.0 | 0.00 | 0.00 | 0.00 | 77 | 1018.6 |
| 20260504044505 | 44 | 97 | 0.0 | 0.0 | 0.00 | 0.00 | 0.00 | 77 | 1018.6 |
| 20260504043001 | 45 | 115 | 0.0 | 0.0 | 0.00 | 0.00 | 0.00 | 77 | 1018.6 |
| 20260504041503 | 45 | 108 | 0.0 | 0.0 | 0.00 | 0.00 | 0.00 | 76 | 1018.6 |
| 20260504040059 | 45 | 101 | 0.0 | 0.0 | 0.00 | 0.00 | 0.00 | 76 | 1018.5 |
| 20260504034618 | 45 | 91 | 0.0 | 0.0 | 0.00 | 0.00 | 0.00 | 76 | 1018.7 |
| 20260504033058 | 45 | 91 | 0.0 | 0.0 | 0.00 | 0.00 | 0.00 | 77 | 1018.5 |
| 20260504031558 | 46 | 91 | 0.0 | 0.0 | 0.00 | 0.00 | 0.00 | 74 | 1018.5 |
| 20260504030056 | 45 | 109 | 0.0 | 0.0 | 0.00 | 0.00 | 0.00 | 75 | 1018.3 |
| 20260504024656 | 45 | 109 | 0.0 | 0.0 | 0.00 | 0.00 | 0.00 | 75 | 1018.5 |
| 20260504023055 | 46 | 78 | 0.0 | 0.0 | 0.00 | 0.00 | 0.00 | 73 | 1018.5 |
| 20260504021655 | 46 | 53 | 0.0 | 0.0 | 0.00 | 0.00 | 0.00 | 74 | 1018.2 |
| 20260504020049 | 47 | 52 | 0.0 | 0.0 | 0.00 | 0.00 | 0.00 | 70 | 1018.3 |
| 20260504014546 | 48 | 91 | 0.0 | 0.0 | 0.00 | 0.00 | 0.00 | 70 | 1018.0 |
| 20260504013102 | 48 | 105 | 0.0 | 0.0 | 0.00 | 0.00 | 0.00 | 68 | 1018.3 |
| 20260504011650 | 49 | 151 | 0.0 | 0.0 | 0.00 | 0.00 | 0.00 | 65 | 1018.3 |
| 20260504010046 | 50 | 151 | 0.0 | 0.0 | 0.00 | 0.00 | 0.00 | 62 | 1018.2 |
| 20260504004544 | 52 | 151 | 0.0 | 0.0 | 0.00 | 0.00 | 0.00 | 60 | 1017.8 |
| 20260504003043 | 54 | 151 | 0.0 | 0.0 | 0.00 | 0.00 | 0.00 | 54 | 1017.7 |
| 20260504001643 | 57 | 151 | 0.0 | 0.0 | 0.00 | 0.00 | 0.00 | 46 | 1017.6 |
| 20260504000023 | 58 | 146 | 0.0 | 0.0 | 0.00 | 0.00 | 0.00 | 43 | 1017.6 |
| 20260503234522 | 59 | 201 | 0.0 | 3.0 | 0.00 | 0.00 | 0.00 | 40 | 1017.7 |
| 20260503233020 | 60 | 132 | 0.0 | 2.0 | 0.00 | 0.00 | 0.00 | 38 | 1017.7 |
| 20260503231518 | 61 | 158 | 0.0 | 0.0 | 0.00 | 0.00 | 0.00 | 38 | 1017.9 |
| 20260503230034 | 61 | 210 | 1.0 | 6.0 | 0.00 | 0.00 | 0.00 | 38 | 1017.7 |
| 20260503224516 | 62 | 201 | 0.0 | 1.0 | 0.00 | 0.00 | 0.00 | 35 | 1018.0 |
| 20260503223012 | 62 | 180 | 0.0 | 9.0 | 0.00 | 0.00 | 0.00 | 37 | 1018.1 |
| 20260503221511 | 61 | 184 | 0.0 | 4.0 | 0.00 | 0.00 | 0.00 | 35 | 1018.2 |
| 20260503220010 | 62 | 135 | 1.0 | 6.0 | 0.00 | 0.00 | 0.00 | 36 | 1018.3 |
| 20260503214524 | 62 | 193 | 0.0 | 8.0 | 0.00 | 0.00 | 0.00 | 34 | 1018.3 |
| 20260503213005 | 62 | 158 | 1.0 | 10.0 | 0.00 | 0.00 | 0.00 | 34 | 1018.5 |
| 20260503211502 | 61 | 125 | 0.0 | 7.0 | 0.00 | 0.00 | 0.00 | 36 | 1018.7 |
| 20260503210002 | 61 | 98 | 2.0 | 10.0 | 0.00 | 0.00 | 0.00 | 34 | 1018.8 |
| 20260503204700 | 61 | 81 | 0.0 | 10.0 | 0.00 | 0.00 | 0.00 | 35 | 1018.8 |
| 20260503203100 | 61 | 146 | 2.0 | 10.0 | 0.00 | 0.00 | 0.00 | 36 | 1019.1 |
| 20260503201555 | 61 | 155 | 2.0 | 10.0 | 0.00 | 0.00 | 0.00 | 36 | 1019.4 |